Simultaneous Nadir Overpasses (SNOs) Predictions

Prediction of SNOs between GOES-16 and NOAA-19 Satellite Orbit:

Table of predicted SNOs for the next 14.0 days since TLE Epoch: 9/17/2022
Index Date Time (GOES-16) GOES-16 Lat,Lon NOAA-19 Lat,Lon Distance(km) Time Diff (sec)
1 09/17/2022 12:52:33 -0.03, -75.21 -0.56, -72.76 278.45 80
2 09/20/2022 01:10:24 0.03, -75.20 -0.51, -77.63 277.05 80
3 09/21/2022 01:01:12 0.03, -75.21 0.17, -74.74 54.33 80
4 09/22/2022 00:49:18 0.03, -75.21 0.78, -71.83 385.68 80
5 09/23/2022 13:21:43 -0.03, -75.25 1.00, -79.59 496.96 80
6 09/24/2022 13:09:50 -0.03, -75.26 0.33, -76.70 165.12 80
7 09/25/2022 12:55:18 -0.03, -75.27 -0.35, -73.80 166.95 80
8 09/26/2022 12:43:25 -0.03, -75.28 -1.03, -70.91 499.09 80
9 09/28/2022 01:15:48 0.03, -75.29 -0.74, -78.67 385.31 80
10 09/29/2022 01:03:55 0.03, -75.30 -0.06, -75.77 53.02 80
11 09/30/2022 00:54:43 0.03, -75.32 0.62, -72.88 279.35 80
